[[{"header":{"parameterUnit":"m.s-1","parameterCategory":2,"la1":30.2991,"la2":30.254,"lo1":-89.0895,"lo2":-89.0444,"dy":0.0017,"dx":0.0017,"nx":28,"ny":28,"refTime":"2024-04-15T03:00:00:Z","depth":"0","parameterNumber":2,"parameterNumberName":"U-component_of_CURRENTS"},"data":[0,0,0,0,0,0,0,0,0,0,0,0,0,0,0,0,0,0,0,0,0,0,0,0,0,0,0,0,0,0,0,0,0,0,0,0,0,0,0,0,0,0,0,0,0,0,0,0,0,0,0,0,0,0,0,0,0,0,0.155,0.1551,0,0.161,0.161,0.1611,0.161,0.161,0.1609,0.1609,0.1624,0.1625,0.1626,0,0,0,0,0,0,0,0,0,0,0,0,0,0.1446,0.1448,0.155,0.1551,0.1552,0.1609,0.161,0.1611,0.161,0.161,0.1609,0.1608,0.1624,0.1625,0.1626,0,0,0,0,0,0,0,0,0,0,0,0,0,0.1495,0.1448,0.155,0.156,0.1562,0.1609,0.161,0.1611,0.1611,0.161,0.1609,0.1608,0.1624,0.1625,0.1626,0.1653,0,0,0.1631,0.1631,0,0,0,0,0,0,0,0,0.1492,0.1498,0.1558,0.156,0.1561,0.1603,0.1579,0.1624,0.1611,0.159,0.1609,0.1607,0.1615,0.1617,0.1628,0.1654,0.1655,0.1631,0.1632,0.1632,0.1633,0,0,0,0,0,0,0,0.1489,0.1496,0.1571,0.1559,0.1561,0.1565,0.1571,0.1588,0.1604,0.1592,0.1592,0.1602,0.1615,0.1627,0.1628,0.1655,0.1631,0.1632,0.1633,0.1634,0.1727,0.1729,0,0,0,0,0,0,0.1486,0.1493,0.157,0.1573,0.1526,0.1568,0.1574,0.1589,0.1605,0.1608,0.1603,0.1602,0.1625,0.1627,0.1629,0.1677,0.1632,0.1634,0.1635,0.1725,0.1727,0.1729,0,0,0,0,0,0,0.1484,0.1493,0.1567,0.1536,0.1546,0.1571,0.1588,0.1591,0.1604,0.1615,0.1616,0.1613,0.1624,0.1627,0.1653,0.1676,0.1634,0.1636,0.1724,0.1726,0.1728,0.1762,0,0,0,0,0,0,0.1481,0.1492,0.15,0.1536,0.1547,0.1601,0.1589,0.1593,0.1612,0.1611,0.1624,0.1624,0.1624,0.1651,0.1654,0.1678,0.1637,0.1722,0.1725,0.1728,0.1759,0.1765,0.1771,0,0,0,0,0,0.1477,0.1494,0.15,0.1509,0.1559,0.1603,0.1609,0.1622,0.1613,0.1628,0.1636,0.1624,0.1672,0.1653,0.1657,0.1681,0.172,0.1724,0.1727,0.1756,0.1764,0.1771,0,0,0,0,0,0,0.1453,0.1497,0.1504,0.1533,0.1567,0.1603,0.1617,0.1627,0.1646,0.1641,0.1643,0.1645,0.1678,0.1679,0.1658,0.1719,0.1695,0.17,0.1716,0.1724,0.1729,0.1745,0.1638,0,0,0,0,0,0.1453,0.1476,0.1519,0.1542,0.1559,0.1589,0.1606,0.1619,0.1642,0.1649,0.166,0.1675,0.1698,0.1708,0.1727,0.1759,0.1823,0.1779,0.1785,0.179,0.1808,0.1935,0.1955,0.1741,0.1741,0.1741,0,0,0.145,0.1477,0.149,0.1539,0.1563,0.16,0.1596,0.1629,0.1655,0.1649,0.1681,0.1696,0.1712,0.1749,0.1764,0.1751,0.1888,0.1795,0.1799,0.1814,0.1941,0.1962,0.1981,0.1743,0.1743,0.1743,0,0,0.1463,0.1482,0.1508,0.154,0.1584,0.1607,0.1618,0.1659,0.167,0.1709,0.1712,0.1749,0.1774,0.1802,0.1816,0.187,0.1915,0.1867,0.1909,0.2033,0.2052,0.2069,0.2193,0.2221,0.1869,0.1869,0.1869,0,0.1458,0.1498,0.1522,0.156,0.1586,0.1611,0.1647,0.1671,0.1714,0.1737,0.1722,0.1798,0.1807,0.187,0.1886,0.1885,0.1964,0.1876,0.2043,0.2061,0.2078,0.22,0.2231,0.1872,0.1871,0.1871,0.1871,0,0.1496,0.1528,0.1547,0.1601,0.1631,0.1668,0.1705,0.1733,0.1747,0.178,0.1841,0.1865,0.1917,0.1921,0.1918,0.2035,0.2056,0.2037,0.2025,0.2102,0.2226,0.2257,0.1874,0.1874,0.1873,0.1873,0,0,0.1492,0.1559,0.1568,0.1595,0.1655,0.1686,0.1729,0.1787,0.1836,0.1866,0.1946,0.1975,0.1999,0.2019,0.2026,0.212,0.2308,0.2131,0.2137,0.2256,0.2602,0.2545,0.2574,0.2323,0.2329,0.2333,0.2645,0,0.1517,0.1579,0.161,0.167,0.1704,0.174,0.1786,0.1839,0.1888,0.1975,0.2009,0.2085,0.2032,0.2076,0.2159,0.2279,0.239,0.2226,0.2508,0.2517,0.2458,0.2608,0.2513,0.2776,0.2676,0.2681,0.2685,0,0.155,0.1585,0.164,0.1707,0.1727,0.1767,0.1851,0.1901,0.2013,0.2059,0.2134,0.218,0.2307,0.2259,0.2501,0.2403,0.2512,0.2594,0.2608,0.2565,0.2518,0.268,0.2837,0.2685,0.2733,0.2729,0.2726,0,0.1536,0.1609,0.1646,0.1672,0.1752,0.1783,0.1831,0.1928,0.1996,0.2135,0.2222,0.2342,0.2444,0.2584,0.2707,0.2647,0.2992,0.2933,0.2985,0.2983,0.2962,0.2947,0.3005,0.3136,0.3135,0.3134,0.3134,0,0.1555,0.1589,0.1643,0.167,0.1738,0.1784,0.1884,0.1947,0.2077,0.2191,0.227,0.2387,0.2537,0.2715,0.2808,0.3001,0.308,0.3045,0.3077,0.2969,0.2952,0.2862,0.2788,0.3146,0.3144,0.3141,0.3139,0,0.1551,0.1579,0.1639,0.1712,0.1738,0.1792,0.1919,0.2002,0.2108,0.2271,0.2326,0.2501,0.2719,0.2858,0.3125,0.3144,0.3232,0.3362,0.3216,0.3223,0.3075,0.3007,0.3071,0.2986,0.3502,0.3503,0.3504,0,0.1559,0.1585,0.167,0.172,0.1759,0.1844,0.1916,0.2015,0.2106,0.2327,0.2411,0.2649,0.2785,0.313,0.3254,0.3453,0.3295,0.345,0.3295,0.3097,0.3049,0.2897,0.2808,0.331,0.3308,0.3308,0.3307,0,0.16,0.1627,0.1688,0.1777,0.1849,0.1913,0.2009,0.2071,0.2202,0.2328,0.2497,0.2621,0.2929,0.3072,0.3301,0.3396,0.3244,0.3435,0.3297,0.2969,0.2751,0.2671,0.3065,0.3299,0.33,0.3301,0.3301,0.3301,0.166,0.1708,0.1789,0.1859,0.1925,0.1952,0.1979,0.2074,0.2177,0.2311,0.2483,0.2632,0.2861,0.3158,0.3235,0.3245,0.3215,0.3149,0.3117,0.3005,0.2803,0.3162,0.3359,0.336,0.3361,0.3362,0.3363,0,0.1748,0.1792,0.1869,0.1933,0.1956,0.1974,0.2024,0.202,0.2079,0.2246,0.2368,0.2604,0.2733,0.2895,0.3021,0.294,0.2818,0.2832,0.2596,0.255,0.2958,0.2818,0.2824,0.2824,0.2824,0.2824,0.2824,0.2824,0.1815,0.1894,0.1898,0.1931,0.1946,0.1922,0.1904,0.1901,0.1971,0.2082,0.2207,0.2368,0.2573,0.2692,0.2652,0.2611,0.2385,0.2297,0.2251,0.2504,0.2529,0.2552,0.24,0.2318,0.2317,0.1743,0.1739,0.1735]},{"header":{"parameterUnit":"m.s-1","parameterCategory":2,"la1":30.2991,"la2":30.254,"lo1":-89.0895,"lo2":-89.0444,"dy":0.0017,"dx":0.0017,"nx":28,"ny":28,"refTime":"2024-04-15T03:00:00:Z","depth":"0","parameterNumber":3,"parameterNumberName":"V-component_of_CURRENTS"},"data":[0,0,0,0,0,0,0,0,0,0,0,0,0,0,0,0,0,0,0,0,0,0,0,0,0,0,0,0,0,0,0,0,0,0,0,0,0,0,0,0,0,0,0,0,0,0,0,0,0,0,0,0,0,0,0,0,0,0,-0.0173,-0.0173,0,-0.0211,-0.0211,-0.0212,-0.0239,-0.0239,-0.0239,-0.0239,-0.0276,-0.0277,-0.0278,0,0,0,0,0,0,0,0,0,0,0,0,0,-0.0158,-0.0158,-0.0173,-0.0173,-0.0174,-0.0211,-0.0211,-0.0212,-0.0239,-0.0239,-0.0239,-0.0239,-0.0276,-0.0277,-0.0278,0,0,0,0,0,0,0,0,0,0,0,0,0,-0.0176,-0.0158,-0.0173,-0.0192,-0.0194,-0.0211,-0.0211,-0.0212,-0.0239,-0.0239,-0.0239,-0.024,-0.0276,-0.0277,-0.0278,-0.0277,0,0,-0.0281,-0.0282,0,0,0,0,0,0,0,0,-0.0175,-0.0177,-0.0189,-0.0191,-0.0193,-0.0221,-0.0219,-0.0234,-0.0238,-0.0221,-0.0239,-0.024,-0.0257,-0.026,-0.0266,-0.0279,-0.0281,-0.0281,-0.0282,-0.0282,-0.0283,0,0,0,0,0,0,0,-0.0174,-0.0176,-0.0188,-0.0189,-0.0192,-0.021,-0.0213,-0.0222,-0.0236,-0.0223,-0.0225,-0.023,-0.0259,-0.0265,-0.0267,-0.0281,-0.0281,-0.0282,-0.0283,-0.0283,-0.0297,-0.0296,0,0,0,0,0,0,-0.0168,-0.0174,-0.0186,-0.0189,-0.0185,-0.021,-0.0213,-0.0211,-0.0237,-0.0241,-0.0229,-0.0231,-0.0263,-0.0266,-0.0268,-0.0266,-0.0282,-0.0284,-0.0284,-0.0297,-0.0296,-0.0296,0,0,0,0,0,0,-0.0167,-0.0168,-0.0185,-0.0183,-0.0187,-0.021,-0.0207,-0.0212,-0.0217,-0.0241,-0.0246,-0.023,-0.0263,-0.0267,-0.0275,-0.0267,-0.0284,-0.0285,-0.0297,-0.0297,-0.0296,-0.0262,0,0,0,0,0,0,-0.0166,-0.0167,-0.0162,-0.0182,-0.0186,-0.0186,-0.0207,-0.0212,-0.022,-0.0222,-0.0244,-0.0248,-0.0264,-0.0274,-0.0277,-0.0269,-0.0286,-0.0298,-0.0297,-0.0296,-0.0264,-0.0261,-0.0258,0,0,0,0,0,-0.0165,-0.015,-0.0161,-0.0163,-0.0178,-0.0185,-0.0189,-0.0207,-0.0219,-0.0215,-0.0235,-0.0247,-0.0272,-0.0274,-0.0278,-0.0271,-0.0298,-0.0297,-0.0297,-0.0265,-0.0261,-0.0258,0,0,0,0,0,0,-0.0135,-0.0152,-0.0165,-0.0154,-0.0167,-0.019,-0.0186,-0.0203,-0.0216,-0.0218,-0.0244,-0.0249,-0.0254,-0.0266,-0.0268,-0.0273,-0.0286,-0.0286,-0.0261,-0.0258,-0.0255,-0.0204,-0.0287,0,0,0,0,0,-0.0128,-0.0123,-0.0144,-0.0135,-0.0139,-0.0164,-0.0169,-0.0183,-0.0198,-0.0204,-0.0222,-0.024,-0.0254,-0.0258,-0.0272,-0.0272,-0.0236,-0.0269,-0.0267,-0.0264,-0.0225,-0.0149,-0.0135,-0.0294,-0.0294,-0.0294,0,0,-0.0114,-0.0122,-0.012,-0.0129,-0.0141,-0.0145,-0.0167,-0.0169,-0.0175,-0.0206,-0.0212,-0.023,-0.0252,-0.0256,-0.0259,-0.0264,-0.0209,-0.0263,-0.0261,-0.0222,-0.0147,-0.0131,-0.0116,-0.0293,-0.0293,-0.0293,0,0,-0.0087,-0.0091,-0.0083,-0.0093,-0.0108,-0.0123,-0.0122,-0.0143,-0.0152,-0.0162,-0.0187,-0.0186,-0.0219,-0.0219,-0.0228,-0.0212,-0.0198,-0.0234,-0.0174,-0.0103,-0.0088,-0.0074,-0.0041,-0.0024,-0.023,-0.023,-0.023,0,-0.007,-0.0068,-0.0081,-0.008,-0.0085,-0.0112,-0.0108,-0.012,-0.0143,-0.0127,-0.0158,-0.0154,-0.0191,-0.0162,-0.0175,-0.0201,-0.0169,-0.0189,-0.0095,-0.0081,-0.0067,-0.0036,-0.0018,-0.0228,-0.0229,-0.0229,-0.0229,0,-0.0047,-0.0048,-0.004,-0.0052,-0.0055,-0.0054,-0.0074,-0.007,-0.0087,-0.0087,-0.0059,-0.0088,-0.0072,-0.0102,-0.0144,-0.0074,-0.0088,-0.0101,-0.0097,-0.0048,-0.002,-0.0002,-0.0226,-0.0227,-0.0227,-0.0227,0,0,-0.0001,-0.0021,-0.002,-0.0015,-0.0041,-0.003,-0.0033,-0.0019,0.0035,0.0002,0.0078,0.0023,0.0038,0.0031,-0.0004,0.004,0.0117,0.0006,0.0009,0.0053,0.0262,0.019,0.0202,0.0126,0.013,0.0133,0.0232,0,0.0019,0.0025,0.0009,0.0026,0.0029,0.0016,0.0039,0.0053,0.0074,0.0144,0.0133,0.0188,0.0078,0.0113,0.013,0.0138,0.0173,0.0091,0.0199,0.0202,0.0144,0.0224,0.0207,0.0291,0.025,0.0253,0.0255,0,0.004,0.0044,0.0055,0.0085,0.0094,0.0113,0.0185,0.0205,0.0281,0.0312,0.036,0.0363,0.0402,0.0323,0.0368,0.0323,0.0297,0.0294,0.0298,0.0245,0.0166,0.0241,0.0325,0.0118,0.0283,0.0281,0.0279,0,0.0076,0.0084,0.0098,0.0098,0.0125,0.0162,0.0199,0.0271,0.0353,0.0453,0.0553,0.0567,0.0632,0.0607,0.0528,0.0476,0.0598,0.0529,0.0443,0.0435,0.0454,0.0441,0.0372,0.0596,0.0596,0.0595,0.0595,0,0.0097,0.0118,0.0129,0.0142,0.0238,0.0231,0.0371,0.0417,0.0544,0.0696,0.0665,0.0799,0.0717,0.0743,0.0636,0.0595,0.0679,0.0493,0.048,0.0456,0.0443,0.0288,0.0196,0.0599,0.0598,0.0597,0.0597,0,0.0141,0.012,0.0173,0.0221,0.0254,0.034,0.0494,0.0617,0.0705,0.0913,0.0961,0.1021,0.1052,0.0942,0.0927,0.0764,0.0624,0.0675,0.0622,0.06,0.0284,0.0197,0.0216,0.0143,0.0613,0.0612,0.0611,0,0.0161,0.0184,0.0264,0.0341,0.0378,0.05,0.0613,0.0703,0.0844,0.1059,0.118,0.1259,0.1328,0.1235,0.0998,0.0828,0.0658,0.0662,0.055,0.0297,0.0193,0.0143,0.0076,0.0578,0.0578,0.0577,0.0576,0,0.0258,0.0288,0.0356,0.049,0.0608,0.074,0.0896,0.1022,0.1159,0.1316,0.151,0.1581,0.1484,0.1309,0.1039,0.0886,0.0521,0.0638,0.0432,0.0218,0.0118,0.0029,0.0441,0.057,0.057,0.0571,0.0571,0.0571,0.0385,0.0466,0.0561,0.0689,0.0818,0.0973,0.11,0.1263,0.1467,0.1696,0.1723,0.1831,0.1549,0.1185,0.096,0.0457,0.0486,0.0263,0.0197,0.0183,0.0057,0.042,0.0485,0.0485,0.0485,0.0485,0.0485,0,0.056,0.0633,0.0762,0.0913,0.1052,0.1078,0.1289,0.1413,0.1636,0.1817,0.1945,0.1839,0.1459,0.1061,0.0421,0.0063,-0.0035,-0.0144,-0.0218,-0.0252,0.0126,0.0059,-0.0032,-0.0032,-0.0031,-0.0031,-0.0031,-0.0031,0.0678,0.0818,0.0847,0.1078,0.1182,0.1355,0.1464,0.1641,0.178,0.1977,0.202,0.2039,0.1688,0.0567,-0.0217,-0.0383,-0.0595,-0.0631,-0.0746,-0.0536,-0.0504,-0.0474,-0.0562,-0.0782,-0.0783,-0.1095,-0.1098,-0.1101]}],[{"header":{"parameterUnit":"m.s-1","parameterCategory":2,"la1":30.2991,"la2":30.254,"lo1":-89.0895,"lo2":-89.0444,"dy":0.0017,"dx":0.0017,"nx":28,"ny":28,"refTime":"2024-04-15T03:00:00:Z","depth":"2","parameterNumber":2,"parameterNumberName":"U-component_of_CURRENTS"},"data":[0,0,0,0,0,0,0,0,0,0,0,0,0,0,0,0,0,0,0,0,0,0,0,0,0,0,0,0,0,0,0,0,0,0,0,0,0,0,0,0,0,0,0,0,0,0,0,0,0,0,0,0,0,0,0,0,0,0,0.1576,0.1577,0,0.1634,0.1634,0.1635,0.1635,0.1635,0.1634,0.1634,0.165,0.1651,0.1652,0,0,0,0,0,0,0,0,0,0,0,0,0,0.1478,0.148,0.1576,0.1577,0.1578,0.1634,0.1634,0.1635,0.1635,0.1635,0.1634,0.1633,0.165,0.1651,0.1652,0,0,0,0,0,0,0,0,0,0,0,0,0,0.1525,0.148,0.1576,0.1587,0.1588,0.1633,0.1634,0.1635,0.1635,0.1635,0.1634,0.1633,0.165,0.1651,0.1652,0.1677,0,0,0.1657,0.1657,0,0,0,0,0,0,0,0,0.1522,0.1528,0.1584,0.1586,0.1588,0.1628,0.1606,0.1648,0.1636,0.1615,0.1634,0.1633,0.1641,0.1643,0.1653,0.1678,0.1678,0.1657,0.1658,0.1658,0.1659,0,0,0,0,0,0,0,0.1519,0.1526,0.1597,0.1585,0.1588,0.1592,0.1598,0.1614,0.163,0.1617,0.1618,0.1628,0.1641,0.1652,0.1654,0.1679,0.1657,0.1658,0.1659,0.1659,0.1755,0.1756,0,0,0,0,0,0,0.1517,0.1523,0.1595,0.1599,0.1555,0.1595,0.1601,0.1614,0.163,0.1633,0.1628,0.1628,0.165,0.1652,0.1654,0.1704,0.1658,0.1659,0.166,0.1753,0.1755,0.1757,0,0,0,0,0,0,0.1515,0.1523,0.1593,0.1563,0.1573,0.1598,0.1613,0.1616,0.1629,0.164,0.1641,0.1638,0.1649,0.1652,0.1679,0.1704,0.166,0.1661,0.1751,0.1753,0.1756,0.1791,0,0,0,0,0,0,0.1512,0.1522,0.153,0.1563,0.1575,0.1627,0.1614,0.1618,0.1637,0.1636,0.1649,0.1649,0.1649,0.1677,0.168,0.1705,0.1662,0.1749,0.1752,0.1755,0.1788,0.1795,0.1801,0,0,0,0,0,0.1508,0.1524,0.153,0.1538,0.1585,0.1628,0.1634,0.1647,0.1638,0.1653,0.1661,0.1649,0.1699,0.1679,0.1683,0.1709,0.1747,0.1751,0.1755,0.1785,0.1793,0.18,0,0,0,0,0,0,0.1486,0.1527,0.1533,0.1561,0.1595,0.1629,0.1643,0.1652,0.1671,0.1666,0.1668,0.1671,0.1705,0.1706,0.1684,0.1748,0.1723,0.1727,0.1745,0.1752,0.1758,0.1766,0.1664,0,0,0,0,0,0.1487,0.1508,0.1549,0.1571,0.1588,0.1616,0.1633,0.1646,0.1668,0.1675,0.1686,0.1701,0.1726,0.1736,0.1755,0.1788,0.1824,0.1809,0.1815,0.1821,0.1831,0.1937,0.1954,0.1769,0.1769,0.1769,0,0,0.1484,0.151,0.1521,0.1568,0.1592,0.1629,0.1624,0.1656,0.1682,0.1675,0.1708,0.1723,0.174,0.1779,0.1794,0.178,0.1888,0.1825,0.1829,0.1838,0.1943,0.1961,0.1977,0.1772,0.1771,0.1771,0,0,0.1497,0.1514,0.154,0.1572,0.1615,0.1637,0.1648,0.1688,0.1699,0.1738,0.1741,0.1777,0.1805,0.1832,0.1846,0.1901,0.1919,0.1902,0.1938,0.204,0.2057,0.2072,0.2122,0.2141,0.1904,0.1904,0.1904,0,0.1493,0.1532,0.1554,0.1592,0.1619,0.1642,0.1679,0.1702,0.1744,0.1766,0.1752,0.183,0.1836,0.19,0.1914,0.1916,0.1962,0.1903,0.205,0.2065,0.208,0.2128,0.2149,0.1906,0.1906,0.1905,0.1905,0,0.1532,0.1563,0.1583,0.1637,0.1666,0.1703,0.174,0.1768,0.1781,0.1813,0.1874,0.1897,0.1949,0.1954,0.1946,0.2049,0.2042,0.2047,0.203,0.2101,0.2146,0.2167,0.1909,0.1908,0.1908,0.1907,0,0,0.1528,0.1596,0.1604,0.1631,0.1692,0.1722,0.1766,0.1824,0.1866,0.1902,0.1973,0.2007,0.203,0.2049,0.2056,0.2127,0.2252,0.2128,0.2132,0.2174,0.2456,0.2337,0.2348,0.2292,0.2296,0.23,0.2439,0,0.1555,0.1618,0.1649,0.1709,0.1744,0.178,0.1824,0.1876,0.1919,0.1996,0.2034,0.2103,0.2064,0.2101,0.2169,0.2242,0.2313,0.2212,0.2383,0.2387,0.2273,0.2371,0.2143,0.2239,0.2459,0.2463,0.2465,0,0.1589,0.1625,0.1682,0.1746,0.1765,0.1805,0.1882,0.1928,0.203,0.2068,0.2145,0.219,0.229,0.2257,0.2415,0.2357,0.2412,0.2455,0.2462,0.2356,0.2309,0.2209,0.2269,0.25,0.2497,0.2495,0.2492,0,0.1576,0.165,0.1689,0.1714,0.1792,0.1822,0.1866,0.1954,0.2016,0.2134,0.2213,0.2312,0.24,0.2487,0.2557,0.2514,0.2738,0.2694,0.2634,0.2624,0.2465,0.2433,0.2831,0.2831,0.283,0.283,0.283,0,0.1597,0.163,0.1686,0.1712,0.1778,0.182,0.1907,0.1965,0.208,0.2185,0.2258,0.2372,0.2474,0.26,0.263,0.2696,0.2806,0.2662,0.2671,0.2465,0.2434,0.2683,0.2665,0.2835,0.2834,0.2833,0.2832,0,0.1593,0.1624,0.168,0.175,0.1778,0.1826,0.1941,0.2014,0.2107,0.2256,0.2308,0.2474,0.2607,0.2683,0.2841,0.2794,0.2863,0.2861,0.2578,0.2549,0.2654,0.2636,0.28,0.2797,0.2795,0.2793,0.2791,0,0.1603,0.1628,0.1708,0.1753,0.1791,0.1867,0.1935,0.2026,0.2113,0.2315,0.2402,0.2574,0.2658,0.2808,0.2767,0.2784,0.2873,0.2593,0.2454,0.2669,0.2662,0.2646,0.2631,0.2257,0.2252,0.2247,0.2243,0,0.1638,0.1662,0.1716,0.1787,0.1855,0.1926,0.2022,0.2081,0.2204,0.2303,0.2458,0.2535,0.2646,0.255,0.2553,0.2534,0.2553,0.2492,0.2868,0.2277,0.2163,0.2153,0.2156,0.2201,0.2205,0.2208,0.221,0.2212,0.1683,0.172,0.1779,0.1826,0.1906,0.1951,0.197,0.2062,0.2139,0.2189,0.2343,0.233,0.2341,0.2183,0.2167,0.2158,0.2301,0.22,0.2214,0.2233,0.2122,0.2008,0.1995,0.1997,0.2,0.2002,0.2004,0,0.1721,0.1755,0.1815,0.1859,0.1881,0.1934,0.2007,0.1974,0.1993,0.202,0.2033,0.1798,0.1736,0.181,0.1707,0.1702,0.1682,0.1668,0.1625,0.1667,0.1704,0.1565,0.1291,0.1289,0.1288,0.1286,0,0,0.1759,0.179,0.1776,0.1784,0.1819,0.1823,0.1825,0.1779,0.1764,0.1608,0.1527,0.1524,0.1674,0.1391,0.139,0.1347,0.1495,0.13,0.1866,0.1853,0.1888,0.2002,0.1834,0,0,0,0,0]},{"header":{"parameterUnit":"m.s-1","parameterCategory":2,"la1":30.2991,"la2":30.254,"lo1":-89.0895,"lo2":-89.0444,"dy":0.0017,"dx":0.0017,"nx":28,"ny":28,"refTime":"2024-04-15T03:00:00:Z","depth":"2","parameterNumber":3,"parameterNumberName":"V-component_of_CURRENTS"},"data":[0,0,0,0,0,0,0,0,0,0,0,0,0,0,0,0,0,0,0,0,0,0,0,0,0,0,0,0,0,0,0,0,0,0,0,0,0,0,0,0,0,0,0,0,0,0,0,0,0,0,0,0,0,0,0,0,0,0,-0.0308,-0.0309,0,-0.035,-0.035,-0.0351,-0.0377,-0.0378,-0.0378,-0.0378,-0.0421,-0.0422,-0.0423,0,0,0,0,0,0,0,0,0,0,0,0,0,-0.0285,-0.0285,-0.0308,-0.0309,-0.0309,-0.035,-0.035,-0.0351,-0.0377,-0.0378,-0.0378,-0.0378,-0.0421,-0.0422,-0.0423,0,0,0,0,0,0,0,0,0,0,0,0,0,-0.0307,-0.0285,-0.0308,-0.0327,-0.033,-0.035,-0.0351,-0.0351,-0.0377,-0.0378,-0.0378,-0.0378,-0.042,-0.0422,-0.0423,-0.0427,0,0,-0.0428,-0.0428,0,0,0,0,0,0,0,0,-0.0306,-0.0308,-0.0324,-0.0326,-0.0329,-0.0359,-0.0358,-0.0377,-0.0377,-0.0359,-0.0378,-0.0378,-0.04,-0.0403,-0.041,-0.0429,-0.0431,-0.0428,-0.0429,-0.0429,-0.043,0,0,0,0,0,0,0,-0.0304,-0.0307,-0.0325,-0.0325,-0.0327,-0.0346,-0.0349,-0.0362,-0.0378,-0.0361,-0.0363,-0.0368,-0.0402,-0.0409,-0.0412,-0.0432,-0.0428,-0.0429,-0.043,-0.0431,-0.0456,-0.0456,0,0,0,0,0,0,-0.0298,-0.0305,-0.0323,-0.0326,-0.0318,-0.0346,-0.0349,-0.0349,-0.0378,-0.0382,-0.0367,-0.0369,-0.0406,-0.041,-0.0413,-0.0415,-0.0429,-0.0431,-0.0432,-0.0456,-0.0456,-0.0456,0,0,0,0,0,0,-0.0297,-0.0299,-0.0322,-0.0317,-0.0321,-0.0346,-0.0345,-0.0349,-0.0356,-0.0383,-0.0387,-0.0369,-0.0407,-0.0411,-0.0424,-0.0417,-0.0431,-0.0433,-0.0456,-0.0456,-0.0456,-0.0422,0,0,0,0,0,0,-0.0296,-0.0298,-0.0293,-0.0316,-0.0321,-0.0327,-0.0345,-0.035,-0.0359,-0.0361,-0.0385,-0.039,-0.0407,-0.0422,-0.0426,-0.042,-0.0434,-0.0457,-0.0456,-0.0456,-0.0424,-0.0421,-0.0418,0,0,0,0,0,-0.0295,-0.0283,-0.0292,-0.0294,-0.0314,-0.0326,-0.033,-0.0349,-0.0358,-0.0356,-0.0377,-0.0389,-0.0422,-0.0423,-0.0428,-0.0422,-0.0457,-0.0456,-0.0456,-0.0425,-0.0421,-0.0418,0,0,0,0,0,0,-0.0266,-0.0285,-0.0296,-0.0289,-0.0305,-0.0331,-0.0329,-0.0345,-0.036,-0.0361,-0.0388,-0.0394,-0.0403,-0.0416,-0.0417,-0.0428,-0.0441,-0.0441,-0.0415,-0.0412,-0.041,-0.0373,-0.0435,0,0,0,0,0,-0.0258,-0.0256,-0.0279,-0.0274,-0.0279,-0.0304,-0.0311,-0.0324,-0.0342,-0.0349,-0.0369,-0.0388,-0.0405,-0.0411,-0.0428,-0.0432,-0.0439,-0.0431,-0.0429,-0.0426,-0.04,-0.0401,-0.0395,-0.0454,-0.0454,-0.0454,0,0,-0.0246,-0.0256,-0.0255,-0.0268,-0.028,-0.0287,-0.0308,-0.0313,-0.0319,-0.0351,-0.036,-0.038,-0.0405,-0.0413,-0.0417,-0.0422,-0.042,-0.0426,-0.0423,-0.0397,-0.04,-0.0394,-0.0389,-0.0454,-0.0454,-0.0454,0,0,-0.0225,-0.0228,-0.0224,-0.0235,-0.0252,-0.0267,-0.0267,-0.0291,-0.0299,-0.0312,-0.0337,-0.0345,-0.0376,-0.0385,-0.0396,-0.0386,-0.0408,-0.04,-0.0355,-0.0357,-0.0352,-0.0347,-0.0376,-0.0374,-0.0397,-0.0396,-0.0396,0,-0.0209,-0.021,-0.0224,-0.0226,-0.0231,-0.0256,-0.0255,-0.0268,-0.0294,-0.0286,-0.0309,-0.0326,-0.0357,-0.0349,-0.0355,-0.0377,-0.0391,-0.0366,-0.0352,-0.0347,-0.0343,-0.0374,-0.0372,-0.0395,-0.0395,-0.0395,-0.0395,0,-0.0194,-0.0194,-0.019,-0.0202,-0.0207,-0.0207,-0.0228,-0.0229,-0.0243,-0.025,-0.0242,-0.0275,-0.0273,-0.0299,-0.0329,-0.0311,-0.0338,-0.0351,-0.0357,-0.0335,-0.037,-0.0368,-0.0392,-0.0393,-0.0393,-0.0394,0,0,-0.0156,-0.0175,-0.0174,-0.0169,-0.0193,-0.0187,-0.0193,-0.0189,-0.0163,-0.0189,-0.0154,-0.0195,-0.019,-0.02,-0.0232,-0.0243,-0.0254,-0.0282,-0.0284,-0.0305,-0.0277,-0.0364,-0.0372,-0.0265,-0.0264,-0.0263,-0.0324,0,-0.0139,-0.0134,-0.0151,-0.0137,-0.0133,-0.0149,-0.0139,-0.0135,-0.0136,-0.0107,-0.0123,-0.0103,-0.0159,-0.0148,-0.0167,-0.0222,-0.0244,-0.0237,-0.0299,-0.0301,-0.0375,-0.037,-0.0278,-0.033,-0.0323,-0.0323,-0.0323,0,-0.0123,-0.0118,-0.0107,-0.0088,-0.0083,-0.0071,-0.0035,-0.0031,-0.0005,-0.0002,0.0018,0.0013,0.0007,-0.0045,-0.0111,-0.0104,-0.0181,-0.0236,-0.024,-0.0321,-0.0384,-0.0345,-0.0328,-0.0321,-0.0321,-0.0321,-0.0321,0,-0.0086,-0.0082,-0.0066,-0.0066,-0.0053,-0.0028,-0.001,0.0015,0.0044,0.0081,0.0116,0.0109,0.0122,0.0042,-0.0073,-0.0087,-0.0158,-0.0192,-0.0343,-0.0351,-0.0283,-0.0287,-0.0235,-0.0235,-0.0235,-0.0234,-0.0234,0,-0.0064,-0.0045,-0.0038,-0.0025,0.0041,0.0028,0.0101,0.0118,0.0153,0.0205,0.0191,0.0228,0.0148,0.0098,-0.003,-0.0183,-0.0125,-0.0326,-0.0364,-0.0276,-0.0279,-0.027,-0.0273,-0.0237,-0.0236,-0.0236,-0.0235,0,-0.0023,-0.0037,0.0003,0.0035,0.0059,0.0114,0.0177,0.0219,0.0245,0.0309,0.033,0.0331,0.0223,0.0107,-0.0027,-0.0125,-0.0267,-0.0339,-0.025,-0.0277,-0.0474,-0.0474,-0.0509,-0.0513,-0.0516,-0.0518,-0.052,0,-0.0006,0.0012,0.0069,0.0105,0.0129,0.0198,0.0241,0.0271,0.0314,0.0362,0.04,0.034,0.0263,0.0034,-0.0111,-0.0335,-0.0381,-0.0401,-0.0421,-0.0464,-0.0497,-0.0494,-0.0491,-0.0322,-0.0323,-0.0323,-0.0323,0,0.0043,0.0064,0.0095,0.0141,0.0195,0.028,0.0347,0.0364,0.0389,0.0421,0.0429,0.0369,0.0216,0.0047,-0.0225,-0.036,-0.036,-0.042,-0.0441,-0.029,-0.0299,-0.0329,-0.0329,-0.0324,-0.0324,-0.0324,-0.0324,-0.0324,0.0087,0.0112,0.0112,0.0155,0.0228,0.0278,0.0317,0.0359,0.0367,0.0441,0.0454,0.044,0.0315,-0.0023,-0.0239,-0.0424,-0.0458,-0.0499,-0.0493,-0.0487,-0.0478,-0.0494,-0.0554,-0.0555,-0.0556,-0.0557,-0.0558,0,0.0066,0.007,0.0113,0.0134,0.0174,0.0249,0.0323,0.0359,0.0331,0.0495,0.055,0.0454,0.0251,0.0044,-0.0207,-0.0409,-0.0361,-0.0496,-0.0361,-0.0359,-0.0357,-0.0336,-0.0378,-0.0378,-0.0378,-0.0378,0,0,0.0054,0.002,0.0004,0.0011,0.0078,0.0152,0.019,0.0274,0.04,0.0501,0.0605,0.0732,0.0401,0.026,-0.0012,-0.0189,-0.0223,-0.0223,-0.034,-0.0144,-0.0139,-0.0332,-0.0295,0,0,0,0,0]}],[{"header":{"parameterUnit":"m.s-1","parameterCategory":2,"la1":30.2991,"la2":30.254,"lo1":-89.0895,"lo2":-89.0444,"dy":0.0017,"dx":0.0017,"nx":28,"ny":28,"refTime":"2024-04-15T03:00:00:Z","depth":"4","parameterNumber":2,"parameterNumberName":"U-component_of_CURRENTS"},"data":[0,0,0,0,0,0,0,0,0,0,0,0,0,0,0,0,0,0,0,0,0,0,0,0,0,0,0,0,0,0,0,0,0,0,0,0,0,0,0,0,0,0,0,0,0,0,0,0,0,0,0,0,0,0,0,0,0,0,0.0507,0.0507,0,0.0525,0.0525,0.0525,0.059,0.0592,0.0594,0.0595,0.0694,0.0695,0.0696,0,0,0,0,0,0,0,0,0,0,0,0,0,0.0526,0.0525,0.0507,0.0507,0.0508,0.0525,0.0525,0.0525,0.059,0.0592,0.0594,0.0596,0.0694,0.0695,0.0696,0,0,0,0,0,0,0,0,0,0,0,0,0,0.0524,0.0524,0.0507,0.0546,0.055,0.0525,0.0525,0.0525,0.0589,0.0592,0.0595,0.0597,0.0693,0.0695,0.0696,0.0648,0,0,0.07,0.07,0,0,0,0,0,0,0,0,0.0524,0.0523,0.0539,0.0543,0.0547,0.0562,0.0568,0.0572,0.0588,0.0569,0.0596,0.0599,0.0658,0.0662,0.0652,0.0652,0.0657,0.07,0.0701,0.0701,0.0702,0,0,0,0,0,0,0,0.0524,0.0522,0.051,0.054,0.0545,0.0562,0.0564,0.0569,0.0596,0.0571,0.0577,0.0585,0.0661,0.0651,0.0655,0.0658,0.07,0.0701,0.0702,0.0702,0.0846,0.0849,0,0,0,0,0,0,0.0527,0.0522,0.0509,0.0511,0.0547,0.056,0.0562,0.0551,0.0594,0.0604,0.0583,0.0588,0.0647,0.0654,0.0659,0.0758,0.0701,0.0703,0.0703,0.0843,0.0847,0.085,0,0,0,0,0,0,0.0527,0.0525,0.0508,0.0522,0.0522,0.0557,0.0543,0.055,0.059,0.0603,0.0614,0.0624,0.0649,0.0657,0.0718,0.0757,0.0703,0.0704,0.0839,0.0844,0.0848,0.0858,0,0,0,0,0,0,0.0527,0.0524,0.0522,0.0521,0.0521,0.052,0.0541,0.0548,0.059,0.0598,0.064,0.0649,0.0652,0.0717,0.072,0.0758,0.0705,0.0835,0.0841,0.0847,0.0854,0.0863,0.087,0,0,0,0,0,0.0527,0.0507,0.0521,0.0521,0.0515,0.0521,0.0522,0.0554,0.059,0.0602,0.0652,0.0651,0.0756,0.0719,0.0722,0.0762,0.0833,0.084,0.0846,0.0851,0.0861,0.087,0,0,0,0,0,0,0.0531,0.0512,0.0528,0.051,0.0531,0.0535,0.0561,0.0575,0.0617,0.0645,0.0667,0.0678,0.0746,0.0762,0.072,0.0829,0.0803,0.081,0.0805,0.0815,0.0823,0.0854,0.0706,0,0,0,0,0,0.0525,0.0505,0.051,0.0508,0.0528,0.0553,0.0566,0.058,0.0614,0.0637,0.0672,0.0725,0.0765,0.0799,0.0825,0.0871,0.0878,0.0911,0.0919,0.0925,0.0959,0.0976,0.0986,0.0872,0.0872,0.0872,0,0,0.0536,0.0521,0.0518,0.0508,0.0541,0.055,0.057,0.06,0.062,0.0639,0.0707,0.0742,0.0783,0.0839,0.0874,0.0865,0.0964,0.0934,0.0938,0.0969,0.0984,0.0994,0.1004,0.0877,0.0876,0.0875,0,0,0.0535,0.0541,0.0527,0.0536,0.0565,0.0574,0.0594,0.0622,0.0662,0.0704,0.0742,0.0813,0.0861,0.0907,0.0933,0.1006,0.0996,0.1027,0.1094,0.1109,0.1117,0.1125,0.114,0.1149,0.1039,0.1039,0.1039,0,0.055,0.0527,0.0533,0.0527,0.0551,0.0594,0.0608,0.0635,0.0678,0.0744,0.074,0.0883,0.0895,0.1,0.1026,0.1021,0.103,0.104,0.1114,0.1122,0.1129,0.1143,0.1153,0.1041,0.1041,0.104,0.104,0,0.0529,0.0531,0.0543,0.0544,0.0564,0.059,0.0628,0.0678,0.0736,0.0787,0.0918,0.0946,0.1053,0.1057,0.1055,0.1146,0.1135,0.1104,0.1075,0.1141,0.1152,0.1162,0.1043,0.1042,0.1042,0.1041,0,0,0.0514,0.0521,0.0528,0.056,0.0579,0.0606,0.0658,0.0745,0.0836,0.0899,0.1003,0.1094,0.1167,0.1205,0.1227,0.1239,0.1269,0.1203,0.1203,0.1193,0.131,0.1196,0.1195,0.1241,0.1243,0.1244,0.1291,0,0.0514,0.0499,0.0505,0.0556,0.0579,0.0639,0.071,0.0797,0.0872,0.0974,0.1071,0.1184,0.1209,0.1268,0.1291,0.1259,0.1299,0.1261,0.1273,0.1274,0.1142,0.1204,0.1251,0.1298,0.13,0.1301,0.1303,0,0.0481,0.0487,0.051,0.0607,0.0638,0.0699,0.0847,0.0903,0.1049,0.112,0.1254,0.1309,0.1402,0.1366,0.1428,0.1402,0.1391,0.1357,0.1357,0.1261,0.1178,0.1226,0.132,0.1318,0.1317,0.1316,0.1315,0,0.0457,0.05,0.0533,0.0552,0.0655,0.0754,0.0852,0.0999,0.1078,0.1233,0.1297,0.1426,0.1479,0.1491,0.1448,0.145,0.1434,0.1421,0.1336,0.1327,0.1406,0.1398,0.1485,0.1484,0.1484,0.1484,0.1484,0,0.0427,0.0467,0.0562,0.0588,0.0715,0.0809,0.0959,0.1074,0.1214,0.1282,0.1419,0.1447,0.1508,0.1493,0.1462,0.1413,0.1472,0.1374,0.1339,0.1411,0.1403,0.1412,0.1403,0.1486,0.1486,0.1485,0.1485,0,0.039,0.0424,0.0485,0.0635,0.0699,0.0813,0.1,0.1073,0.1269,0.1322,0.1378,0.1485,0.1489,0.1506,0.1471,0.1433,0.1378,0.1352,0.1427,0.139,0.1273,0.1265,0.1308,0.1304,0.1301,0.1299,0.1297,0,0.0358,0.0379,0.0503,0.0548,0.0641,0.08,0.0872,0.1074,0.1105,0.1291,0.1269,0.1376,0.1406,0.1304,0.133,0.1319,0.1305,0.1299,0.1323,0.1298,0.1259,0.1256,0.1251,0.1292,0.1292,0.1291,0.129,0,0.0317,0.0369,0.0409,0.0482,0.0576,0.0645,0.0775,0.0815,0.0977,0.1128,0.1151,0.1203,0.1203,0.1205,0.1216,0.1189,0.1304,0.1269,0.1277,0.13,0.1279,0.1243,0.1242,0.128,0.1281,0.1282,0.1283,0,0.0284,0.0291,0.0326,0.041,0.0468,0.0501,0.0593,0.0642,0.073,0.0944,0.0896,0.1026,0.1111,0.1134,0.1096,0.1106,0.1134,0.1112,0.1129,0.1141,0.1069,0.1017,0.0927,0,0,0,0,0,0.0243,0.0224,0.0251,0.0308,0.0352,0.0408,0.0495,0.0571,0.0705,0.0676,0.0821,0.0811,0.0891,0.0947,0.0936,0.1052,0.1132,0.1035,0.1112,0.1223,0.1235,0.1167,0,0,0,0,0,0,0.0199,0.0195,0.0201,0.0195,0.0229,0.0261,0.0323,0.042,0.0426,0.0582,0.0612,0.075,0.0816,0.0878,0.0913,0.0936,0.0966,0.112,0.1118,0.1216,0.1227,0.1237,0.117,0,0,0,0,0]},{"header":{"parameterUnit":"m.s-1","parameterCategory":2,"la1":30.2991,"la2":30.254,"lo1":-89.0895,"lo2":-89.0444,"dy":0.0017,"dx":0.0017,"nx":28,"ny":28,"refTime":"2024-04-15T03:00:00:Z","depth":"4","parameterNumber":3,"parameterNumberName":"V-component_of_CURRENTS"},"data":[0,0,0,0,0,0,0,0,0,0,0,0,0,0,0,0,0,0,0,0,0,0,0,0,0,0,0,0,0,0,0,0,0,0,0,0,0,0,0,0,0,0,0,0,0,0,0,0,0,0,0,0,0,0,0,0,0,0,0.0157,0.0156,0,0.012,0.0119,0.0119,0.0078,0.0078,0.0077,0.0077,-0.0015,-0.0017,-0.0019,0,0,0,0,0,0,0,0,0,0,0,0,0,0.0129,0.013,0.0157,0.0156,0.0156,0.012,0.0119,0.0118,0.0078,0.0078,0.0077,0.0077,-0.0014,-0.0016,-0.0019,0,0,0,0,0,0,0,0,0,0,0,0,0,0.0121,0.013,0.0157,0.0132,0.013,0.012,0.0119,0.0118,0.0078,0.0078,0.0077,0.0076,-0.0013,-0.0016,-0.0019,-0.0022,0,0,-0.0028,-0.0029,0,0,0,0,0,0,0,0,0.0121,0.0122,0.0136,0.0134,0.0131,0.0103,0.0076,0.0069,0.0079,0.0097,0.0077,0.0076,0.0021,0.0015,0.0009,-0.0026,-0.003,-0.0028,-0.003,-0.0031,-0.0032,0,0,0,0,0,0,0,0.0122,0.0123,0.0141,0.0136,0.0133,0.0101,0.0099,0.0074,0.0062,0.0095,0.0093,0.009,0.0019,0.0012,0.0007,-0.0032,-0.0028,-0.0031,-0.0033,-0.0034,-0.0116,-0.0116,0,0,0,0,0,0,0.0133,0.0124,0.0142,0.014,0.0125,0.0102,0.0101,0.0112,0.0063,0.0056,0.0091,0.0088,0.0018,0.001,0.0003,-0.0008,-0.0031,-0.0034,-0.0036,-0.0116,-0.0116,-0.0117,0,0,0,0,0,0,0.0132,0.0135,0.0144,0.013,0.0129,0.0104,0.0117,0.0112,0.0097,0.0061,0.0052,0.008,0.0017,0.0007,-0.0023,-0.0012,-0.0035,-0.0038,-0.0115,-0.0116,-0.0116,-0.0028,0,0,0,0,0,0,0.0132,0.0136,0.0142,0.0132,0.0131,0.0137,0.0118,0.0112,0.0097,0.0093,0.0048,0.004,0.0016,-0.0018,-0.0026,-0.0016,-0.004,-0.0115,-0.0115,-0.0116,-0.0031,-0.0026,-0.0022,0,0,0,0,0,0.0131,0.0139,0.0143,0.0144,0.0143,0.0137,0.0133,0.0111,0.0097,0.0094,0.0063,0.0041,-0.0029,-0.0021,-0.0029,-0.0021,-0.0114,-0.0115,-0.0116,-0.0033,-0.0027,-0.0022,0,0,0,0,0,0,0.0112,0.0136,0.0139,0.015,0.0146,0.013,0.0124,0.011,0.0085,0.0078,0.0041,0.003,0.0011,-0.0026,-0.0016,-0.0051,-0.0078,-0.008,-0.0011,-0.0006,-0.0002,-0.0017,-0.0043,0,0,0,0,0,0.0119,0.0143,0.0146,0.0153,0.0155,0.014,0.0133,0.0122,0.0101,0.0088,0.0058,0.0022,0.0002,-0.0019,-0.0045,-0.0065,-0.0112,-0.0071,-0.0066,-0.0062,-0.0083,-0.0137,-0.0138,-0.012,-0.012,-0.012,0,0,0.0109,0.0128,0.0137,0.0152,0.0148,0.0163,0.0133,0.0126,0.0137,0.0082,0.0075,0.0041,0.0,-0.0014,-0.0028,-0.0045,-0.0088,-0.0063,-0.0058,-0.0083,-0.0138,-0.0139,-0.0141,-0.012,-0.012,-0.012,0,0,0.0118,0.0126,0.0155,0.0163,0.017,0.0166,0.0166,0.0153,0.0144,0.0136,0.0103,0.0069,0.0034,0.0007,-0.0009,-0.0002,-0.0056,-0.0014,-0.0008,-0.0058,-0.006,-0.0062,-0.0102,-0.0108,-0.0019,-0.0018,-0.0018,0,0.0105,0.0154,0.0154,0.0187,0.0197,0.0174,0.0199,0.0192,0.0167,0.0155,0.0142,0.007,0.0048,0.0018,0.0022,0.0011,-0.0034,-0.0013,-0.005,-0.0054,-0.0057,-0.0098,-0.0106,-0.0014,-0.0015,-0.0015,-0.0016,0,0.0146,0.0182,0.0195,0.0244,0.0246,0.0261,0.026,0.0252,0.0237,0.0218,0.0179,0.0132,0.0072,0.0076,0.0055,0.0013,-0.0013,-0.0026,-0.0056,-0.0054,-0.0097,-0.0107,-0.0008,-0.001,-0.0011,-0.0012,0,0,0.0135,0.0213,0.0221,0.0258,0.0282,0.0288,0.0305,0.0306,0.0295,0.0261,0.0232,0.0197,0.0128,0.0101,0.0057,0.0018,-0.0021,-0.002,-0.0024,-0.0046,-0.0138,-0.0086,-0.0093,-0.0045,-0.0047,-0.0048,-0.0148,0,0.0172,0.0253,0.0278,0.0338,0.0374,0.0367,0.0382,0.037,0.0338,0.03,0.0238,0.0187,0.0151,0.0104,0.006,-0.0002,-0.005,0.0006,-0.0151,-0.0156,-0.01,-0.0104,-0.0054,-0.0156,-0.0159,-0.016,-0.0162,0,0.0219,0.0266,0.0343,0.0399,0.0411,0.0435,0.0433,0.0435,0.0379,0.0343,0.0258,0.019,0.0112,0.0081,-0.0046,-0.0015,-0.0085,-0.0127,-0.0132,-0.013,-0.0124,-0.0169,-0.0181,-0.018,-0.0178,-0.0177,-0.0176,0,0.0231,0.0315,0.0382,0.0404,0.0454,0.0474,0.0478,0.0442,0.0437,0.0337,0.0302,0.0184,0.0125,0.0015,-0.007,-0.0082,-0.0189,-0.0216,-0.0239,-0.0236,-0.0291,-0.0288,-0.0321,-0.0321,-0.0321,-0.0321,-0.032,0,0.0278,0.033,0.0396,0.0431,0.0479,0.0491,0.0506,0.0481,0.0441,0.0427,0.03,0.0256,0.0103,0.0027,-0.0072,-0.0169,-0.0201,-0.025,-0.0263,-0.0249,-0.024,-0.0297,-0.0293,-0.0324,-0.0324,-0.0323,-0.0322,0,0.0293,0.0352,0.0418,0.0475,0.0496,0.0515,0.0547,0.0551,0.0492,0.0463,0.0429,0.0309,0.0189,0.0067,-0.0088,-0.0152,-0.0256,-0.0283,-0.0239,-0.0247,-0.0281,-0.0271,-0.0362,-0.0361,-0.036,-0.0359,-0.0359,0,0.0315,0.0356,0.0432,0.0477,0.0513,0.055,0.0584,0.0568,0.0567,0.0506,0.0498,0.0377,0.0285,0.0103,-0.0029,-0.0217,-0.0237,-0.0293,-0.0322,-0.0283,-0.0288,-0.028,-0.0271,-0.0358,-0.0357,-0.0357,-0.0357,0,0.0324,0.0355,0.0403,0.0486,0.0548,0.0605,0.0644,0.0648,0.0628,0.0602,0.0531,0.0409,0.0289,0.0117,-0.0007,-0.014,-0.026,-0.0287,-0.0291,-0.0319,-0.028,-0.0283,-0.0276,-0.0354,-0.0355,-0.0355,-0.0355,0,0.0316,0.0343,0.041,0.0487,0.0567,0.0628,0.0648,0.0664,0.0658,0.0598,0.0593,0.0436,0.0355,0.016,0.0052,-0.0074,-0.0139,-0.0188,-0.0199,-0.0204,-0.0118,-0.0042,-0.0065,0,0,0,0,0,0.0303,0.0346,0.0414,0.0491,0.0571,0.062,0.0684,0.0698,0.0695,0.0654,0.0617,0.0501,0.03,0.0209,0.0082,0.0046,-0.0159,-0.0105,-0.0221,-0.034,-0.0343,-0.0263,0,0,0,0,0,0,0.0301,0.0356,0.04,0.0483,0.0539,0.0617,0.0661,0.0668,0.0634,0.0618,0.0506,0.0471,0.0269,0.0361,0.0074,0.0038,-0.005,-0.0195,-0.0197,-0.0338,-0.0341,-0.0343,-0.0262,0,0,0,0,0]}]]